Time,TemperatureF,DewpointF,PressureIn,WindDirection,WindDirectionDegrees,WindSpeedMPH,WindSpeedGustMPH,Humidity,HourlyPrecipIn,Conditions,Clouds,dailyrainin,SoftwareType,DateUTC
2013-01-24 00:03:00,52.3,49.0,30.09,ENE,77,0.0,0.0,88,0.00,,,0.00,weatherlink.com 1.10,2013-01-24 06:03:00,
2013-01-24 00:18:00,52.0,48.0,30.10,ENE,77,0.0,0.0,86,0.00,,,0.00,weatherlink.com 1.10,2013-01-24 06:18:00,
2013-01-24 00:33:00,51.8,49.0,30.09,ENE,77,0.0,0.0,89,0.00,,,0.00,weatherlink.com 1.10,2013-01-24 06:33:00,
2013-01-24 00:48:00,51.9,49.0,30.09,ENE,77,0.0,0.0,90,0.00,,,0.00,weatherlink.com 1.10,2013-01-24 06:48:00,
2013-01-24 01:03:00,52.2,49.0,30.09,ENE,77,0.0,0.0,90,0.00,,,0.00,weatherlink.com 1.10,2013-01-24 07:03:00,
2013-01-24 01:18:00,51.9,49.0,30.10,ENE,77,0.0,0.0,90,0.00,,,0.00,weatherlink.com 1.10,2013-01-24 07:18:00,
2013-01-24 01:33:00,51.1,48.0,30.10,ENE,77,0.0,0.0,90,0.00,,,0.00,weatherlink.com 1.10,2013-01-24 07:33:00,
2013-01-24 01:48:00,50.3,48.0,30.10,ENE,77,0.0,0.0,91,0.00,,,0.00,weatherlink.com 1.10,2013-01-24 07:48:00,
2013-01-24 02:03:00,49.8,48.0,30.10,ENE,77,0.0,0.0,92,0.00,,,0.00,weatherlink.com 1.10,2013-01-24 08:03:00,
2013-01-24 02:18:00,49.3,47.0,30.10,ENE,77,0.0,0.0,93,0.00,,,0.00,weatherlink.com 1.10,2013-01-24 08:18:00,
2013-01-24 02:33:00,48.3,46.0,30.10,ENE,77,0.0,0.0,93,0.00,,,0.00,weatherlink.com 1.10,2013-01-24 08:33:00,
2013-01-24 02:48:00,47.4,46.0,30.11,ENE,77,0.0,0.0,94,0.00,,,0.00,weatherlink.com 1.10,2013-01-24 08:48:00,
2013-01-24 03:03:00,47.1,46.0,30.11,ENE,77,0.0,0.0,94,0.00,,,0.00,weatherlink.com 1.10,2013-01-24 09:03:00,
2013-01-24 03:18:00,46.5,45.0,30.11,ENE,77,0.0,0.0,94,0.00,,,0.00,weatherlink.com 1.10,2013-01-24 09:18:00,
2013-01-24 03:33:00,46.3,45.0,30.11,ENE,77,0.0,0.0,94,0.00,,,0.00,weatherlink.com 1.10,2013-01-24 09:33:00,
2013-01-24 03:48:00,45.3,44.0,30.10,ENE,77,0.0,0.0,94,0.00,,,0.00,weatherlink.com 1.10,2013-01-24 09:48:00,
2013-01-24 04:03:00,44.2,43.0,30.10,ENE,77,0.0,0.0,94,0.00,,,0.00,weatherlink.com 1.10,2013-01-24 10:03:00,
2013-01-24 04:18:00,43.2,42.0,30.09,ENE,77,0.0,0.0,94,0.00,,,0.00,weatherlink.com 1.10,2013-01-24 10:18:00,
2013-01-24 04:33:00,42.7,41.0,30.09,ENE,77,0.0,0.0,95,0.00,,,0.00,weatherlink.com 1.10,2013-01-24 10:33:00,
2013-01-24 04:48:00,41.1,40.0,30.09,ENE,77,0.0,0.0,94,0.00,,,0.00,weatherlink.com 1.10,2013-01-24 10:48:00,
2013-01-24 05:03:00,41.7,41.0,30.10,NNE,19,3.0,3.0,96,0.00,,,0.00,weatherlink.com 1.10,2013-01-24 11:03:00,
2013-01-24 05:18:00,45.0,44.0,30.10,North,355,2.0,6.0,97,0.00,,,0.00,weatherlink.com 1.10,2013-01-24 11:18:00,
2013-01-24 05:34:00,45.2,44.0,30.10,NNE,17,0.0,4.0,96,0.00,,,0.00,weatherlink.com 1.10,2013-01-24 11:34:00,
2013-01-24 05:48:00,45.1,44.0,30.11,NNE,17,0.0,0.0,96,0.00,,,0.00,weatherlink.com 1.10,2013-01-24 11:48:00,
2013-01-24 06:04:00,44.3,43.0,30.12,NNE,17,0.0,0.0,96,0.00,,,0.00,weatherlink.com 1.10,2013-01-24 12:04:00,
2013-01-24 06:18:00,43.4,42.0,30.11,NNE,16,0.0,0.0,96,0.00,,,0.00,weatherlink.com 1.10,2013-01-24 12:18:00,
2013-01-24 06:34:00,43.3,42.0,30.12,NNE,15,0.0,2.0,96,0.00,,,0.00,weatherlink.com 1.10,2013-01-24 12:34:00,
2013-01-24 06:48:00,44.0,43.0,30.12,NNE,13,0.0,4.0,97,0.00,,,0.00,weatherlink.com 1.10,2013-01-24 12:48:00,
2013-01-24 07:03:00,45.1,44.0,30.13,NNE,19,0.0,3.0,97,0.00,,,0.00,weatherlink.com 1.10,2013-01-24 13:03:00,
2013-01-24 07:18:00,46.3,46.0,30.13,NNE,24,0.0,1.0,97,0.00,,,0.00,weatherlink.com 1.10,2013-01-24 13:18:00,
2013-01-24 07:34:00,46.0,45.0,30.13,NNE,24,0.0,0.0,96,0.00,,,0.00,weatherlink.com 1.10,2013-01-24 13:34:00,
2013-01-24 07:49:00,45.8,45.0,30.12,ENE,71,0.0,3.0,97,0.00,,,0.00,weatherlink.com 1.10,2013-01-24 13:49:00,
2013-01-24 08:03:00,46.1,45.0,30.12,ENE,71,0.0,2.0,97,0.00,,,0.00,weatherlink.com 1.10,2013-01-24 14:03:00,
2013-01-24 08:18:00,47.0,46.0,30.13,ENE,61,3.0,5.0,97,0.00,,,0.00,weatherlink.com 1.10,2013-01-24 14:18:00,
2013-01-24 08:34:00,47.8,47.0,30.12,East,79,5.0,7.0,97,0.00,,,0.00,weatherlink.com 1.10,2013-01-24 14:34:00,
2013-01-24 08:49:00,48.1,47.0,30.13,East,86,3.0,7.0,97,0.00,,,0.00,weatherlink.com 1.10,2013-01-24 14:49:00,
2013-01-24 09:04:00,48.5,48.0,30.13,East,94,0.0,7.0,97,0.00,,,0.00,weatherlink.com 1.10,2013-01-24 15:04:00,
2013-01-24 09:19:00,49.0,48.0,30.14,East,83,1.0,8.0,97,0.00,,,0.00,weatherlink.com 1.10,2013-01-24 15:19:00,
2013-01-24 09:34:00,48.7,48.0,30.14,ENE,69,5.0,7.0,97,0.00,,,0.00,weatherlink.com 1.10,2013-01-24 15:34:00,
2013-01-24 09:49:00,49.0,48.0,30.14,ENE,78,3.0,7.0,97,0.00,,,0.00,weatherlink.com 1.10,2013-01-24 15:49:00,
2013-01-24 10:04:00,49.3,49.0,30.15,ENE,63,4.0,8.0,97,0.00,,,0.00,weatherlink.com 1.10,2013-01-24 16:04:00,
2013-01-24 10:19:00,48.9,48.0,30.16,NNE,22,5.0,8.0,97,0.00,,,0.00,weatherlink.com 1.10,2013-01-24 16:19:00,
2013-01-24 10:34:00,48.4,48.0,30.15,ENE,60,5.0,9.0,97,0.00,,,0.00,weatherlink.com 1.10,2013-01-24 16:34:00,
2013-01-24 10:49:00,48.6,48.0,30.14,NE,45,8.0,8.0,97,0.00,,,0.00,weatherlink.com 1.10,2013-01-24 16:49:00,
2013-01-24 11:04:00,48.7,48.0,30.14,ENE,73,5.0,9.0,97,0.00,,,0.00,weatherlink.com 1.10,2013-01-24 17:04:00,
2013-01-24 11:19:00,48.9,48.0,30.15,NE,55,4.0,6.0,97,0.00,,,0.00,weatherlink.com 1.10,2013-01-24 17:19:00,
2013-01-24 11:34:00,49.0,48.0,30.15,NNE,29,0.0,5.0,97,0.00,,,0.00,weatherlink.com 1.10,2013-01-24 17:34:00,
2013-01-24 11:49:00,48.7,48.0,30.15,NE,36,6.0,9.0,97,0.00,,,0.00,weatherlink.com 1.10,2013-01-24 17:49:00,
2013-01-24 12:04:00,48.9,48.0,30.13,NE,46,2.0,7.0,97,0.00,,,0.00,weatherlink.com 1.10,2013-01-24 18:04:00,
2013-01-24 12:19:00,48.8,48.0,30.13,NE,37,0.0,5.0,97,0.00,,,0.00,weatherlink.com 1.10,2013-01-24 18:19:00,
2013-01-24 12:34:00,48.8,48.0,30.13,NE,37,3.0,5.0,97,0.00,,,0.00,weatherlink.com 1.10,2013-01-24 18:34:00,
2013-01-24 12:49:00,49.3,49.0,30.13,North,11,0.0,1.0,98,0.00,,,0.00,weatherlink.com 1.10,2013-01-24 18:49:00,
2013-01-24 13:04:00,49.6,49.0,30.13,NNE,30,0.0,0.0,97,0.00,,,0.00,weatherlink.com 1.10,2013-01-24 19:04:00,
2013-01-24 13:19:00,50.1,50.0,30.13,North,5,0.0,0.0,98,0.00,,,0.00,weatherlink.com 1.10,2013-01-24 19:19:00,
2013-01-24 13:34:00,50.3,50.0,30.11,NNW,336,0.0,2.0,97,0.00,,,0.00,weatherlink.com 1.10,2013-01-24 19:34:00,
2013-01-24 13:49:00,51.8,51.0,30.10,NW,326,0.0,4.0,96,0.00,,,0.00,weatherlink.com 1.10,2013-01-24 19:49:00,
2013-01-24 14:05:00,52.3,49.0,30.09,North,355,0.0,6.0,89,0.00,,,0.00,weatherlink.com 1.10,2013-01-24 20:05:00,
2013-01-24 14:19:00,54.2,49.0,30.09,NW,319,0.0,4.0,82,0.00,,,0.00,weatherlink.com 1.10,2013-01-24 20:19:00,
2013-01-24 14:34:00,55.8,48.0,30.09,NW,305,5.0,6.0,75,0.00,,,0.00,weatherlink.com 1.10,2013-01-24 20:34:00,
2013-01-24 14:49:00,56.4,47.0,30.08,NNE,16,4.0,7.0,71,0.00,,,0.00,weatherlink.com 1.10,2013-01-24 20:49:00,
2013-01-24 15:04:00,56.8,47.0,30.08,NW,317,0.0,5.0,70,0.00,,,0.00,weatherlink.com 1.10,2013-01-24 21:04:00,
2013-01-24 15:19:00,57.6,47.0,30.08,NW,325,0.0,4.0,68,0.00,,,0.00,weatherlink.com 1.10,2013-01-24 21:19:00,
2013-01-24 15:34:00,58.2,48.0,30.07,WSW,250,0.0,5.0,68,0.00,,,0.00,weatherlink.com 1.10,2013-01-24 21:34:00,
2013-01-24 15:49:00,58.4,47.0,30.07,NW,304,0.0,6.0,65,0.00,,,0.00,weatherlink.com 1.10,2013-01-24 21:49:00,
2013-01-24 16:05:00,58.2,46.0,30.07,WSW,238,3.0,7.0,64,0.00,,,0.00,weatherlink.com 1.10,2013-01-24 22:05:00,
2013-01-24 16:20:00,58.9,46.0,30.06,WNW,287,0.0,3.0,62,0.00,,,0.00,weatherlink.com 1.10,2013-01-24 22:20:00,
2013-01-24 16:35:00,58.4,45.0,30.06,NW,317,0.0,5.0,62,0.00,,,0.00,weatherlink.com 1.10,2013-01-24 22:35:00,
2013-01-24 16:50:00,58.8,45.0,30.06,NW,317,0.0,1.0,61,0.00,,,0.00,weatherlink.com 1.10,2013-01-24 22:50:00,
2013-01-24 17:05:00,58.3,45.0,30.06,NW,311,3.0,3.0,61,0.00,,,0.00,weatherlink.com 1.10,2013-01-24 23:05:00,
2013-01-24 17:20:00,57.6,44.0,30.07,West,281,1.0,6.0,62,0.00,,,0.00,weatherlink.com 1.10,2013-01-24 23:20:00,
2013-01-24 17:34:00,56.8,44.0,30.06,WNW,284,0.0,1.0,62,0.00,,,0.00,weatherlink.com 1.10,2013-01-24 23:34:00,
2013-01-24 17:50:00,56.1,43.0,30.05,WNW,284,0.0,0.0,63,0.00,,,0.00,weatherlink.com 1.10,2013-01-24 23:50:00,
2013-01-24 18:05:00,55.2,43.0,30.05,WNW,284,0.0,0.0,64,0.00,,,0.00,weatherlink.com 1.10,2013-01-25 00:05:00,
2013-01-24 18:20:00,53.2,42.0,30.07,WNW,294,3.0,4.0,67,0.00,,,0.00,weatherlink.com 1.10,2013-01-25 00:20:00,
2013-01-24 18:35:00,50.0,40.0,30.08,NNW,333,4.0,7.0,69,0.00,,,0.00,weatherlink.com 1.10,2013-01-25 00:35:00,
2013-01-24 18:50:00,48.0,39.0,30.08,NNW,328,3.0,6.0,71,0.00,,,0.00,weatherlink.com 1.10,2013-01-25 00:50:00,
2013-01-24 19:05:00,47.1,38.0,30.08,NNW,332,4.0,5.0,72,0.00,,,0.00,weatherlink.com 1.10,2013-01-25 01:05:00,
2013-01-24 19:20:00,46.1,38.0,30.09,NNW,344,0.0,5.0,73,0.00,,,0.00,weatherlink.com 1.10,2013-01-25 01:20:00,
2013-01-24 19:35:00,45.6,37.0,30.09,NNW,331,4.0,8.0,73,0.00,,,0.00,weatherlink.com 1.10,2013-01-25 01:35:00,
2013-01-24 19:50:00,43.9,35.0,30.09,NNW,345,5.0,15.0,71,0.00,,,0.00,weatherlink.com 1.10,2013-01-25 01:50:00,
2013-01-24 20:05:00,42.8,35.0,30.09,NNE,32,6.0,11.0,73,0.00,,,0.00,weatherlink.com 1.10,2013-01-25 02:05:00,
2013-01-24 20:20:00,41.9,34.0,30.07,NE,44,4.0,9.0,74,0.00,,,0.00,weatherlink.com 1.10,2013-01-25 02:20:00,
2013-01-24 20:35:00,41.3,34.0,30.06,NE,54,4.0,7.0,75,0.00,,,0.00,weatherlink.com 1.10,2013-01-25 02:35:00,
2013-01-24 20:50:00,40.7,34.0,30.05,NE,45,5.0,7.0,76,0.00,,,0.00,weatherlink.com 1.10,2013-01-25 02:50:00,
2013-01-24 21:05:00,40.6,34.0,30.07,NNE,16,6.0,9.0,76,0.00,,,0.00,weatherlink.com 1.10,2013-01-25 03:05:00,
2013-01-24 21:20:00,40.5,34.0,30.08,NNE,32,6.0,10.0,76,0.00,,,0.00,weatherlink.com 1.10,2013-01-25 03:20:00,
2013-01-24 21:35:00,40.1,33.0,30.08,NNE,22,6.0,10.0,76,0.00,,,0.00,weatherlink.com 1.10,2013-01-25 03:35:00,
2013-01-24 21:50:00,39.9,33.0,30.08,NNE,31,7.0,12.0,76,0.00,,,0.00,weatherlink.com 1.10,2013-01-25 03:50:00,
2013-01-24 22:05:00,39.8,33.0,30.07,NE,45,6.0,10.0,77,0.00,,,0.00,weatherlink.com 1.10,2013-01-25 04:05:00,
2013-01-24 22:20:00,39.7,33.0,30.07,NE,49,7.0,10.0,77,0.00,,,0.00,weatherlink.com 1.10,2013-01-25 04:20:00,
2013-01-24 22:35:00,39.8,33.0,30.07,NE,36,6.0,11.0,77,0.00,,,0.00,weatherlink.com 1.10,2013-01-25 04:35:00,
2013-01-24 22:50:00,39.8,33.0,30.07,NNE,26,10.0,12.0,76,0.00,,,0.00,weatherlink.com 1.10,2013-01-25 04:50:00,
2013-01-24 23:05:00,39.7,33.0,30.06,NNE,30,3.0,9.0,76,0.00,,,0.00,weatherlink.com 1.10,2013-01-25 05:05:00,
2013-01-24 23:20:00,39.4,32.0,30.06,NE,40,6.0,10.0,76,0.00,,,0.00,weatherlink.com 1.10,2013-01-25 05:20:00,
2013-01-24 23:35:00,39.3,32.0,30.10,NW,326,9.0,13.0,76,0.00,,,0.00,weatherlink.com 1.10,2013-01-25 05:35:00,
2013-01-24 23:50:00,38.6,31.0,30.09,NNE,28,8.0,14.0,75,0.00,,,0.00,weatherlink.com 1.10,2013-01-25 05:50:00,